Location: Home
(42.5358°N, 72.7383°W)
Time: 16:27:17
(UTC-04:00)

Explorer 11/Cluster Stage 4 - Pass Details

Date: 07 August 2024
Orbit: 464 x 1208 km, 28.8° (Epoch: 19 September)

Event Time Altitude Azimuth Distance (km) Brightness Sun altitude
Rises 02:14:16 0° 241° (WSW) 3,766 - -28.6°
Reaches altitude 10° 02:17:15 10° 230° (SW) 2,915 - -28.3°
Maximum altitude 02:23:17 28° 175° (S) 2,026 - -27.9°
Exits shadow 02:27:09 19° 135° (SE) 2,506 8.9 -27.6°
Drops below altitude 10° 02:29:45 10° 121° (ESE) 3,141 9.6 -27.4°
Sets 02:33:06 0° 110° (ESE) 4,108 10.3 -27.2°
